| time (UTC) | temp F | wind direction | speed MPH | gust MPH | rain 1hr in | rain 24hr in | rain mn in | humidity % | barometer mb |
| 20260504130544 | 55 | 311 | 3.0 | 8.0 | 0.00 | 0.00 | 0.00 | 52 | 1006.2 |
| 20260504120105 | 52 | 0 | 0.0 | 4.0 | 0.00 | 0.00 | 0.00 | 63 | 1007.0 |
| 20260504110547 | 41 | 0 | 0.0 | 1.0 | 0.00 | 0.00 | 0.00 | 95 | 1007.5 |
| 20260504100549 | 40 | 0 | 0.0 | 2.0 | 0.00 | 0.00 | 0.00 | 94 | 1007.9 |
| 20260504081550 | 40 | 261 | 1.0 | 4.0 | 0.00 | 0.00 | 0.00 | 93 | 1007.7 |
| 20260504081045 | 40 | 0 | 0.0 | 3.0 | 0.00 | 0.00 | 0.00 | 93 | 1007.6 |
| 20260504080547 | 39 | 132 | 1.0 | 3.0 | 0.00 | 0.00 | 0.00 | 93 | 1007.8 |
| 20260504050547 | 36 | 288 | 0.0 | 4.0 | 0.00 | 0.00 | 0.00 | 83 | 1008.1 |
| 20260504045544 | 35 | 341 | 0.0 | 3.0 | 0.00 | 0.00 | 0.00 | 82 | 1008.2 |
| 20260504045049 | 35 | 0 | 0.0 | 2.0 | 0.00 | 0.00 | 0.00 | 83 | 1008.3 |
| 20260504044555 | 35 | 0 | 0.0 | 1.0 | 0.00 | 0.00 | 0.00 | 82 | 1008.3 |
| 20260504044046 | 35 | 0 | 0.0 | 3.0 | 0.00 | 0.00 | 0.00 | 82 | 1008.3 |
| 20260504043546 | 35 | 0 | 0.0 | 3.0 | 0.00 | 0.00 | 0.00 | 82 | 1008.5 |
| 20260504043054 | 35 | 329 | 1.0 | 2.0 | 0.00 | 0.00 | 0.00 | 82 | 1008.7 |
| 20260504042546 | 35 | 0 | 0.0 | 1.0 | 0.00 | 0.00 | 0.00 | 82 | 1008.7 |
| 20260504042047 | 35 | 0 | 0.0 | 0.0 | 0.00 | 0.00 | 0.00 | 82 | 1008.7 |
| 20260504041553 | 35 | 0 | 0.0 | 1.0 | 0.00 | 0.00 | 0.00 | 82 | 1008.7 |
| 20260504041046 | 34 | 0 | 0.0 | 2.0 | 0.00 | 0.00 | 0.00 | 82 | 1008.8 |
| 20260504040548 | 34 | 0 | 0.0 | 2.0 | 0.00 | 0.00 | 0.00 | 82 | 1008.7 |
| 20260504040056 | 34 | 0 | 0.0 | 2.0 | 0.00 | 0.00 | 0.00 | 83 | 1008.8 |
| 20260504035545 | 34 | 0 | 0.0 | 2.0 | 0.00 | 0.00 | 0.00 | 83 | 1008.7 |
| 20260504035047 | 34 | 269 | 0.0 | 2.0 | 0.00 | 0.00 | 0.00 | 83 | 1008.7 |
| 20260504034557 | 34 | 0 | 0.0 | 2.0 | 0.00 | 0.00 | 0.00 | 83 | 1008.7 |
| 20260504034050 | 34 | 0 | 0.0 | 3.0 | 0.00 | 0.00 | 0.00 | 84 | 1008.7 |
| 20260504033547 | 34 | 0 | 0.0 | 3.0 | 0.00 | 0.00 | 0.00 | 84 | 1008.7 |
| 20260504033054 | 34 | 248 | 0.0 | 3.0 | 0.00 | 0.00 | 0.00 | 84 | 1008.7 |
| 20260504032547 | 33 | 0 | 0.0 | 2.0 | 0.00 | 0.00 | 0.00 | 85 | 1008.7 |
| 20260504032049 | 33 | 276 | 0.0 | 2.0 | 0.00 | 0.00 | 0.00 | 85 | 1008.6 |
| 20260504031602 | 33 | 0 | 0.0 | 2.0 | 0.00 | 0.00 | 0.00 | 85 | 1008.7 |
| 20260504031050 | 33 | 299 | 1.0 | 2.0 | 0.00 | 0.00 | 0.00 | 84 | 1008.7 |
| 20260504030545 | 33 | 0 | 0.0 | 1.0 | 0.00 | 0.00 | 0.00 | 84 | 1008.7 |
| 20260504030050 | 33 | 0 | 0.0 | 1.0 | 0.00 | 0.00 | 0.00 | 83 | 1008.6 |
| 20260504025548 | 33 | 0 | 0.0 | 1.0 | 0.00 | 0.00 | 0.00 | 83 | 1008.7 |
| 20260504025046 | 33 | 0 | 0.0 | 1.0 | 0.00 | 0.00 | 0.00 | 83 | 1008.7 |
| 20260504024559 | 33 | 0 | 0.0 | 1.0 | 0.00 | 0.00 | 0.00 | 83 | 1008.8 |
| 20260504024048 | 34 | 0 | 0.0 | 2.0 | 0.00 | 0.00 | 0.00 | 83 | 1008.9 |
| 20260504023551 | 34 | 0 | 0.0 | 2.0 | 0.00 | 0.00 | 0.00 | 82 | 1008.9 |
| 20260504023052 | 34 | 0 | 0.0 | 2.0 | 0.00 | 0.00 | 0.00 | 82 | 1008.9 |
| 20260504022547 | 34 | 0 | 0.0 | 2.0 | 0.00 | 0.00 | 0.00 | 82 | 1008.8 |
| 20260504022047 | 34 | 0 | 0.0 | 4.0 | 0.00 | 0.00 | 0.00 | 82 | 1008.9 |
| 20260504021554 | 34 | 306 | 2.0 | 4.0 | 0.00 | 0.00 | 0.00 | 81 | 1008.7 |
| 20260504021047 | 34 | 306 | 2.0 | 3.0 | 0.00 | 0.00 | 0.00 | 81 | 1008.8 |
| 20260504020547 | 34 | 0 | 0.0 | 2.0 | 0.00 | 0.00 | 0.00 | 80 | 1008.8 |
| 20260504020050 | 35 | 297 | 0.0 | 2.0 | 0.00 | 0.00 | 0.00 | 80 | 1008.8 |
| 20260504015547 | 35 | 0 | 0.0 | 3.0 | 0.00 | 0.00 | 0.00 | 80 | 1008.9 |
| 20260504015047 | 35 | 0 | 0.0 | 3.0 | 0.00 | 0.00 | 0.00 | 80 | 1008.9 |
| 20260504014554 | 35 | 0 | 0.0 | 3.0 | 0.00 | 0.00 | 0.00 | 80 | 1008.9 |
| 20260504014046 | 35 | 0 | 0.0 | 2.0 | 0.00 | 0.00 | 0.00 | 80 | 1008.8 |
| 20260504013545 | 35 | 0 | 0.0 | 2.0 | 0.00 | 0.00 | 0.00 | 80 | 1008.8 |
| 20260504013107 | 35 | 0 | 0.0 | 2.0 | 0.00 | 0.00 | 0.00 | 80 | 1008.8 |
| 20260504012546 | 36 | 0 | 1.0 | 2.0 | 0.00 | 0.00 | 0.00 | 80 | 1008.7 |
| 20260504012048 | 36 | 0 | 0.0 | 2.0 | 0.00 | 0.00 | 0.00 | 80 | 1008.7 |
| 20260504011551 | 36 | 0 | 0.0 | 2.0 | 0.00 | 0.00 | 0.00 | 79 | 1008.6 |
| 20260504011047 | 36 | 315 | 0.0 | 2.0 | 0.00 | 0.00 | 0.00 | 78 | 1008.5 |
| 20260504010545 | 37 | 315 | 0.0 | 1.0 | 0.00 | 0.00 | 0.00 | 78 | 1008.4 |
| 20260504010052 | 37 | 315 | 0.0 | 1.0 | 0.00 | 0.00 | 0.00 | 78 | 1008.3 |
| 20260504005547 | 37 | 0 | 0.0 | 1.0 | 0.00 | 0.00 | 0.00 | 78 | 1008.3 |
| 20260504005048 | 37 | 0 | 0.0 | 2.0 | 0.00 | 0.00 | 0.00 | 77 | 1008.2 |
| 20260504004601 | 38 | 315 | 0.0 | 2.0 | 0.00 | 0.00 | 0.00 | 76 | 1008.1 |
| 20260504004046 | 38 | 315 | 0.0 | 2.0 | 0.00 | 0.00 | 0.00 | 76 | 1008.1 |
| 20260504003546 | 38 | 315 | 1.0 | 2.0 | 0.00 | 0.00 | 0.00 | 75 | 1008.1 |
| 20260504003050 | 39 | 0 | 0.0 | 2.0 | 0.00 | 0.00 | 0.00 | 75 | 1008.1 |
| 20260504002546 | 39 | 315 | 0.0 | 2.0 | 0.00 | 0.00 | 0.00 | 74 | 1008.0 |
| 20260504002049 | 39 | 0 | 0.0 | 3.0 | 0.00 | 0.00 | 0.00 | 73 | 1007.9 |
| 20260504001554 | 40 | 0 | 0.0 | 3.0 | 0.00 | 0.00 | 0.00 | 72 | 1007.8 |
| 20260504001048 | 40 | 0 | 0.0 | 3.0 | 0.00 | 0.00 | 0.00 | 71 | 1007.8 |
| 20260504000546 | 41 | 0 | 0.0 | 2.0 | 0.00 | 0.00 | 0.00 | 68 | 1007.7 |
| 20260504000054 | 41 | 315 | 1.0 | 2.0 | 0.00 | 0.00 | 0.00 | 71 | 1007.7 |
| 20260503235545 | 41 | 0 | 0.0 | 2.0 | 0.00 | 0.00 | 0.00 | 71 | 1007.6 |
| 20260503235048 | 42 | 315 | 0.0 | 2.0 | 0.00 | 0.00 | 0.00 | 70 | 1007.8 |
| 20260503234552 | 43 | 315 | 0.0 | 3.0 | 0.00 | 0.00 | 0.00 | 67 | 1007.6 |
| 20260503234044 | 43 | 315 | 0.0 | 3.0 | 0.00 | 0.00 | 0.00 | 69 | 1007.6 |
| 20260503233547 | 44 | 315 | 1.0 | 3.0 | 0.00 | 0.00 | 0.00 | 68 | 1007.6 |
| 20260503233050 | 44 | 0 | 0.0 | 3.0 | 0.00 | 0.00 | 0.00 | 65 | 1007.5 |
| 20260503232545 | 45 | 0 | 1.0 | 3.0 | 0.00 | 0.00 | 0.00 | 62 | 1007.6 |
| 20260503232045 | 45 | 215 | 0.0 | 3.0 | 0.00 | 0.00 | 0.00 | 59 | 1007.5 |
| 20260503231555 | 46 | 0 | 0.0 | 3.0 | 0.00 | 0.00 | 0.00 | 61 | 1007.6 |
| 20260503231050 | 47 | 299 | 0.0 | 3.0 | 0.00 | 0.00 | 0.00 | 53 | 1007.5 |
| 20260503230547 | 47 | 0 | 0.0 | 3.0 | 0.00 | 0.00 | 0.00 | 52 | 1007.4 |
| 20260503230052 | 48 | 321 | 0.0 | 4.0 | 0.00 | 0.00 | 0.00 | 51 | 1007.4 |
| 20260503225543 | 48 | 0 | 1.0 | 4.0 | 0.00 | 0.00 | 0.00 | 47 | 1007.4 |
| 20260503225047 | 48 | 0 | 0.0 | 3.0 | 0.00 | 0.00 | 0.00 | 49 | 1007.3 |
| 20260503224549 | 48 | 156 | 1.0 | 3.0 | 0.00 | 0.00 | 0.00 | 47 | 1007.3 |
| 20260503224047 | 48 | 0 | 0.0 | 3.0 | 0.00 | 0.00 | 0.00 | 46 | 1007.2 |
| 20260503223546 | 48 | 174 | 0.0 | 4.0 | 0.00 | 0.00 | 0.00 | 47 | 1007.3 |
| 20260503223052 | 48 | 336 | 1.0 | 5.0 | 0.00 | 0.00 | 0.00 | 49 | 1007.3 |
| 20260503222546 | 48 | 0 | 2.0 | 6.0 | 0.00 | 0.00 | 0.00 | 46 | 1007.4 |
| 20260503222047 | 48 | 158 | 2.0 | 6.0 | 0.00 | 0.00 | 0.00 | 47 | 1007.4 |
| 20260503221554 | 48 | 16 | 0.0 | 3.0 | 0.00 | 0.00 | 0.00 | 47 | 1007.4 |
| 20260503221052 | 48 | 170 | 0.0 | 4.0 | 0.00 | 0.00 | 0.00 | 47 | 1007.4 |
| 20260503220545 | 48 | 0 | 1.0 | 8.0 | 0.00 | 0.00 | 0.00 | 46 | 1007.4 |
| 20260503220101 | 48 | 0 | 2.0 | 8.0 | 0.00 | 0.00 | 0.00 | 48 | 1007.3 |
| 20260503215546 | 48 | 169 | 1.0 | 9.0 | 0.00 | 0.00 | 0.00 | 45 | 1007.4 |
| 20260503215047 | 48 | 184 | 3.0 | 9.0 | 0.00 | 0.00 | 0.00 | 47 | 1007.4 |
| 20260503214550 | 49 | 9 | 2.0 | 9.0 | 0.00 | 0.00 | 0.00 | 47 | 1007.3 |
| 20260503214046 | 49 | 223 | 1.0 | 5.0 | 0.00 | 0.00 | 0.00 | 46 | 1007.3 |
| 20260503213544 | 49 | 215 | 1.0 | 5.0 | 0.00 | 0.00 | 0.00 | 51 | 1007.4 |
| 20260503213053 | 48 | 340 | 0.0 | 4.0 | 0.00 | 0.00 | 0.00 | 49 | 1007.4 |
| 20260503212544 | 48 | 223 | 1.0 | 6.0 | 0.00 | 0.00 | 0.00 | 49 | 1007.4 |
| 20260503212044 | 48 | 335 | 1.0 | 8.0 | 0.00 | 0.00 | 0.00 | 47 | 1007.4 |
| 20260503211603 | 49 | 18 | 2.0 | 8.0 | 0.00 | 0.00 | 0.00 | 48 | 1007.4 |
| 20260503211049 | 48 | 189 | 2.0 | 6.0 | 0.00 | 0.00 | 0.00 | 48 | 1007.4 |
| 20260503210545 | 48 | 17 | 0.0 | 10.0 | 0.00 | 0.00 | 0.00 | 47 | 1007.6 |
| 20260503210047 | 48 | 65 | 2.0 | 10.0 | 0.00 | 0.00 | 0.00 | 50 | 1007.5 |
| 20260503205547 | 48 | 88 | 2.0 | 5.0 | 0.00 | 0.00 | 0.00 | 48 | 1007.6 |
| 20260503205046 | 48 | 119 | 2.0 | 11.0 | 0.00 | 0.00 | 0.00 | 47 | 1007.4 |
| 20260503204552 | 48 | 228 | 3.0 | 11.0 | 0.00 | 0.00 | 0.00 | 49 | 1007.4 |
| 20260503204046 | 48 | 155 | 2.0 | 7.0 | 0.00 | 0.00 | 0.00 | 50 | 1007.5 |
| 20260503203547 | 48 | 12 | 3.0 | 7.0 | 0.00 | 0.00 | 0.00 | 48 | 1007.5 |
| 20260503203053 | 48 | 167 | 2.0 | 9.0 | 0.00 | 0.00 | 0.00 | 51 | 1007.5 |
| 20260503202550 | 47 | 152 | 3.0 | 9.0 | 0.00 | 0.00 | 0.00 | 52 | 1007.5 |
| 20260503202045 | 47 | 130 | 3.0 | 7.0 | 0.00 | 0.00 | 0.00 | 50 | 1007.6 |
| 20260503201556 | 47 | 54 | 1.0 | 7.0 | 0.00 | 0.00 | 0.00 | 49 | 1007.6 |
| 20260503201048 | 47 | 305 | 2.0 | 7.0 | 0.00 | 0.00 | 0.00 | 51 | 1007.5 |
| 20260503200545 | 47 | 165 | 2.0 | 5.0 | 0.00 | 0.00 | 0.00 | 50 | 1007.5 |
| 20260503200056 | 47 | 148 | 1.0 | 10.0 | 0.00 | 0.00 | 0.00 | 49 | 1007.4 |
| 20260503195544 | 47 | 137 | 1.0 | 10.0 | 0.00 | 0.00 | 0.00 | 52 | 1007.5 |
| 20260503195045 | 47 | 351 | 1.0 | 8.0 | 0.00 | 0.00 | 0.00 | 49 | 1007.6 |
| 20260503194556 | 47 | 238 | 4.0 | 10.0 | 0.00 | 0.00 | 0.00 | 48 | 1007.6 |
| 20260503194046 | 47 | 192 | 3.0 | 10.0 | 0.00 | 0.00 | 0.00 | 48 | 1007.7 |
| 20260503193546 | 47 | 232 | 3.0 | 10.0 | 0.00 | 0.00 | 0.00 | 47 | 1007.7 |
| 20260503193056 | 47 | 327 | 2.0 | 10.0 | 0.00 | 0.00 | 0.00 | 48 | 1007.9 |
| 20260503192545 | 47 | 0 | 1.0 | 9.0 | 0.00 | 0.00 | 0.00 | 48 | 1007.7 |
| 20260503192045 | 47 | 174 | 3.0 | 10.0 | 0.00 | 0.00 | 0.00 | 47 | 1007.7 |
| 20260503191556 | 47 | 350 | 4.0 | 13.0 | 0.00 | 0.00 | 0.00 | 49 | 1007.7 |
| 20260503191047 | 47 | 131 | 3.0 | 13.0 | 0.00 | 0.00 | 0.00 | 49 | 1007.7 |
| 20260503190549 | 46 | 136 | 3.0 | 11.0 | 0.00 | 0.00 | 0.00 | 48 | 1007.8 |
| 20260503190056 | 47 | 215 | 2.0 | 11.0 | 0.00 | 0.00 | 0.00 | 48 | 1008.0 |
| 20260503185548 | 47 | 190 | 4.0 | 13.0 | 0.00 | 0.00 | 0.00 | 49 | 1007.9 |
| 20260503185047 | 47 | 167 | 3.0 | 13.0 | 0.00 | 0.00 | 0.00 | 47 | 1007.8 |
| 20260503184606 | 47 | 84 | 4.0 | 13.0 | 0.00 | 0.00 | 0.00 | 47 | 1007.8 |
| 20260503184045 | 47 | 273 | 4.0 | 10.0 | 0.00 | 0.00 | 0.00 | 45 | 1007.7 |
| 20260503183544 | 47 | 159 | 4.0 | 13.0 | 0.00 | 0.00 | 0.00 | 45 | 1007.7 |
| 20260503183055 | 47 | 0 | 4.0 | 13.0 | 0.00 | 0.00 | 0.00 | 44 | 1007.8 |
| 20260503182548 | 48 | 96 | 3.0 | 11.0 | 0.00 | 0.00 | 0.00 | 44 | 1007.9 |
| 20260503182046 | 48 | 68 | 4.0 | 11.0 | 0.00 | 0.00 | 0.00 | 45 | 1007.8 |
| 20260503181552 | 47 | 202 | 3.0 | 10.0 | 0.00 | 0.00 | 0.00 | 48 | 1007.9 |
| 20260503181047 | 47 | 144 | 4.0 | 9.0 | 0.00 | 0.00 | 0.00 | 48 | 1008.0 |
| 20260503180546 | 46 | 189 | 1.0 | 11.0 | 0.00 | 0.00 | 0.00 | 48 | 1007.8 |
| 20260503180056 | 46 | 123 | 2.0 | 12.0 | 0.00 | 0.00 | 0.00 | 46 | 1007.9 |
| 20260503175545 | 46 | 80 | 5.0 | 14.0 | 0.00 | 0.00 | 0.00 | 46 | 1007.8 |
| 20260503175045 | 47 | 45 | 4.0 | 14.0 | 0.00 | 0.00 | 0.00 | 46 | 1007.9 |
| 20260503174612 | 47 | 44 | 5.0 | 15.0 | 0.00 | 0.00 | 0.00 | 45 | 1007.9 |
| 20260503174045 | 47 | 360 | 2.0 | 15.0 | 0.00 | 0.00 | 0.00 | 46 | 1007.8 |
| 20260503173545 | 48 | 215 | 4.0 | 15.0 | 0.00 | 0.00 | 0.00 | 46 | 1007.8 |
| 20260503173050 | 48 | 143 | 3.0 | 12.0 | 0.00 | 0.00 | 0.00 | 45 | 1007.8 |
| 20260503172549 | 48 | 92 | 4.0 | 12.0 | 0.00 | 0.00 | 0.00 | 46 | 1007.9 |
| 20260503172046 | 47 | 236 | 4.0 | 12.0 | 0.00 | 0.00 | 0.00 | 44 | 1007.8 |
| 20260503171551 | 48 | 120 | 4.0 | 14.0 | 0.00 | 0.00 | 0.00 | 46 | 1007.6 |
| 20260503171045 | 48 | 351 | 5.0 | 16.0 | 0.00 | 0.00 | 0.00 | 43 | 1007.6 |
| 20260503170545 | 48 | 102 | 4.0 | 16.0 | 0.00 | 0.00 | 0.00 | 43 | 1007.6 |
| 20260503150547 | 46 | 300 | 2.0 | 10.0 | 0.00 | 0.00 | 0.00 | 52 | 1008.5 |